"Time","Temp","Dewpoint","Humidity","Pressure","Direction","Speed","Gust","Precip","PrecipRate"
"00:04:57","43","27.5","54","30.06","325","5.4","11.5","0.00","0.00"
"00:09:58","43","27.5","54","30.06","324","6","12","0.00","0.00"
"00:14:57","43","27.5","54","30.06","328","6.3","13","0.00","0.00"
"00:19:59","43","27.4","53.6","30.06","327","6.6","13","0.00","0.00"
"00:24:57","43","27.5","54","30.06","332","4.8","11.5","0.00","0.00"
"00:29:59","42.9","27.4","54","30.06","323","4.2","9.2","0.00","0.00"
"00:34:56","42.7","27.4","54.3","30.06","337","4.2","9","0.00","0.00"
"00:39:59","42.7","27.4","54.5","30.06","327","4.6","12","0.00","0.00"
"00:44:57","42.7","27.4","54.4","30.07","324","4.3","12","0.00","0.00"
"00:49:58","42.8","27.4","54.3","30.07","328","5","11.5","0.00","0.00"
"00:54:56","42.9","27.6","54.5","30.07","333","5.3","11.5","0.00","0.00"
"00:59:58","43","27.6","54.2","30.07","334","4.7","12","0.00","0.00"
"01:04:59","43","27.5","54","30.07","316","4.6","13","0.00","0.00"
"01:09:57","42.8","27.5","54.5","30.07","322","3.5","9.2","0.00","0.00"
"01:14:59","42.5","27.5","55","30.07","324","3","7","0.00","0.00"
"01:19:58","42.3","27.4","55.3","30.06","346","3.1","6.9","0.00","0.00"
"01:24:59","42.1","27.4","55.9","30.06","336","3.5","7","0.00","0.00"
"01:29:57","42","27.4","56","30.06","329","3.9","10.4","0.00","0.00"
"01:34:59","41.9","27.3","56","30.06","332","2.9","7","0.00","0.00"
"01:39:58","41.7","27.6","57","30.06","330","1.9","4","0.00","0.00"
"01:44:56","41.3","27.3","57.2","30.06","342","2.5","9","0.00","0.00"
"01:49:59","41.1","27.3","57.8","30.06","339","3.3","8.1","0.00","0.00"
"01:54:57","41","27.3","58","30.06","323","2.6","8.1","0.00","0.00"
"01:59:58","40.8","27.2","58","30.06","334","2.4","5","0.00","0.00"
"02:04:59","40.7","27.1","58","30.06","333","0.8","3.5","0.00","0.00"
"02:09:57","40.5","27.1","58.4","30.06","321","2.1","5","0.00","0.00"
"02:14:56","40.4","27.2","59","30.06","297","1","3.5","0.00","0.00"
"02:19:58","40.3","27.1","59","30.06","328","0.6","4","0.00","0.00"
"02:24:56","40.1","26.9","59","30.06","329","0.1","1.2","0.00","0.00"
"02:29:59","39.9","26.9","59.4","30.07","329","0.2","1.2","0.00","0.00"
"02:34:57","39.6","26.9","60.1","30.07","329","0","0","0.00","0.00"
"02:39:59","39.2","27","61.2","30.07","316","0.9","2.3","0.00","0.00"
"02:44:58","38.5","26.9","62.7","30.07","316","0.4","2.3","0.00","0.00"
"02:49:56","37.9","26.8","64","30.07","316","0","0","0.00","0.00"
"02:54:58","37.5","26.4","64","30.07","316","0","1","0.00","0.00"
"02:59:57","37.4","26.3","64","30.07","316","0.2","1.2","0.00","0.00"
"03:04:59","37.6","26.5","64","30.07","316","0.1","1.2","0.00","0.00"
"03:09:57","37.7","26.6","64","30.07","316","0.1","2","0.00","0.00"
"03:14:56","37.7","26.6","64","30.07","316","0.5","2.3","0.00","0.00"
"03:19:58","37.5","26.4","64","30.07","333","2.2","7","0.00","0.00"
"03:24:56","37.7","26.6","64","30.07","327","3.1","6","0.00","0.00"
"03:29:58","38.2","26.9","63.6","30.07","334","3.3","9","0.00","0.00"
"03:34:56","38.6","27.1","63","30.06","327","2.6","8.1","0.00","0.00"
"03:39:59","38.6","26.8","62.3","30.06","334","1.6","5","0.00","0.00"
"03:44:57","38.6","26.7","62","30.07","350","0.5","3","0.00","0.00"
"03:49:59","38.4","26.8","62.7","30.07","350","0.2","3.5","0.00","0.00"
"03:54:57","38.1","26.7","63.3","30.07","350","0.3","1.2","0.00","0.00"
"03:59:59","37.7","26.6","64","30.08","350","0.2","1.2","0.00","0.00"
"04:04:57","37.4","26.3","64.1","30.08","350","0","1.2","0.00","0.00"
"04:09:59","37.2","26.5","65","30.08","350","0","0","0.00","0.00"
"04:14:57","37","26.4","65.2","30.08","350","0.9","3.5","0.00","0.00"
"04:19:56","37","26.7","66","30.08","350","1","3.5","0.00","0.00"
"04:24:58","36.9","26.6","66","30.08","350","0.5","3","0.00","0.00"
"04:29:56","36.6","26.5","66.4","30.08","350","0.5","3.5","0.00","0.00"
"04:34:58","36.4","26.5","67","30.07","350","0.1","1.2","0.00","0.00"
"04:39:57","36.1","26.2","67","30.07","350","0","1.2","0.00","0.00"
"04:44:59","35.9","26.3","67.8","30.08","350","0","0","0.00","0.00"
"04:49:57","35.5","26.2","68.5","30.08","350","0.2","2.3","0.00","0.00"
"04:54:56","34.9","26.3","70.4","30.08","350","0.2","1.2","0.00","0.00"
"04:59:58","34.5","26.2","71.5","30.08","350","0","0","0.00","0.00"
"05:04:56","34.3","26.2","72","30.08","350","0.3","2.3","0.00","0.00"
"05:09:58","34.5","26.2","71.4","30.08","350","0.7","2.3","0.00","0.00"
"05:14:57","34.9","26.4","71","30.09","350","0.2","1.2","0.00","0.00"
"05:19:59","35.1","26.3","70.2","30.09","350","0.5","2.3","0.00","0.00"
"05:24:57","35","26.2","70.1","30.09","350","0.6","2.3","0.00","0.00"
"05:29:59","34.7","26.3","71","30.10","350","0","0","0.00","0.00"
"05:34:57","34.3","25.9","71","30.10","350","0","0","0.00","0.00"
"05:39:56","33.9","25.8","72","30.10","350","0","0","0.00","0.00"
"05:44:59","33.6","25.7","72.5","30.10","350","0","1","0.00","0.00"
"05:49:57","33.3","25.7","73.4","30.10","350","0.2","2.3","0.00","0.00"
"05:54:59","33","25.7","74.2","30.10","350","0.6","2.3","0.00","0.00"
"05:59:56","32.6","25.6","75","30.10","350","0.5","2.3","0.00","0.00"
"06:04:58","32.3","25.5","75.7","30.10","350","0.1","2.3","0.00","0.00"
"06:09:57","32.2","25.6","76.5","30.10","350","0.6","2.3","0.00","0.00"
"06:14:56","32.3","26.2","78","30.10","350","0.9","2.3","0.00","0.00"
"06:19:58","32.5","26.4","77.9","30.10","350","0.7","2.3","0.00","0.00"
"06:24:56","32.6","26.2","77","30.10","350","0","0","0.00","0.00"
"06:29:59","32.4","26","77","30.10","350","0.1","1.2","0.00","0.00"
"06:34:57","32.1","25.7","77","30.10","350","0","0","0.00","0.00"
"06:39:56","31.8","25.4","77.2","30.10","350","0","0","0.00","0.00"
"06:44:58","31.5","25.5","78.3","30.10","350","0.5","2.3","0.00","0.00"
"06:49:56","31.5","25.7","79","30.10","350","0.5","2.3","0.00","0.00"
"06:54:59","31.5","25.7","79","30.10","350","0","2","0.00","0.00"
"06:59:57","31.4","25.6","79.1","30.12","287","1.2","3.5","0.00","0.00"
"07:04:55","31.3","25.8","79.8","30.12","269","0","1.2","0.00","0.00"
"07:09:57","31.2","25.7","80","30.12","269","0.5","2.3","0.00","0.00"
"07:14:56","31.3","26","80.7","30.12","269","0.6","2.3","0.00","0.00"
"07:19:58","31.7","26.5","81","30.12","269","0.2","2.3","0.00","0.00"
"07:24:56","32.2","26.7","80","30.12","269","0","0","0.00","0.00"
"07:29:58","32.5","26.9","79.4","30.13","269","0","1","0.00","0.00"
"07:34:59","32.8","27","79","30.13","269","0.5","1.2","0.00","0.00"
"07:39:58","33","27.2","79","30.13","269","0","0","0.00","0.00"
"07:44:56","33.7","27.9","79","30.13","269","0","0","0.00","0.00"
"07:49:58","34.5","28.6","78.7","30.13","269","0","0","0.00","0.00"
"07:54:56","35.1","28.5","76.6","30.13","269","0","0","0.00","0.00"
"07:59:58","35.5","29","77","30.13","269","0","1","0.00","0.00"
"08:04:59","36.6","29.3","74.6","30.13","269","0.7","2.3","0.00","0.00"
"08:09:57","38","29.6","71.6","30.13","267","1.1","3.5","0.00","0.00"
"08:14:59","39","30","69.8","30.13","302","1.5","3.5","0.00","0.00"
"08:19:57","39.9","30.3","68.5","30.13","333","2","4","0.00","0.00"
"08:24:59","40.5","30.4","67","30.13","306","2.2","5","0.00","0.00"
"08:29:56","41","30.8","66.7","30.13","282","1.8","4","0.00","0.00"
"08:34:58","41.5","30.7","65.2","30.12","257","2","5","0.00","0.00"
"08:39:56","41.8","30.7","64.4","30.12","290","2.3","4.6","0.00","0.00"
"08:44:58","42.2","30.7","63.5","30.12","331","2.5","6","0.00","0.00"
"08:49:59","42.5","30.8","62.9","30.12","340","3.5","10.4","0.00","0.00"
"08:54:57","42.8","30.7","62","30.12","317","2.9","7","0.00","0.00"
